TimeNZST,TemperatureF,Dew PointF,Humidity,Sea Level PressureIn,VisibilityMPH,Wind Direction,Wind SpeedMPH,Gust SpeedMPH,PrecipitationIn,Events,Conditions,WindDirDegrees,DateUTC
12:00 AM,51.8,50.0,94,29.92,6.2,East,10.4,-,N/A,Rain,Light Rain,90,2013-06-08 12:00:00
1:00 AM,51.8,50.0,94,29.92,6.2,East,11.5,-,N/A,Rain,Light Rain,90,2013-06-08 13:00:00
2:00 AM,51.8,48.2,88,29.95,6.2,East,3.5,-,N/A,Rain,Light Rain,90,2013-06-08 14:00:00
3:00 AM,50.0,46.4,87,29.95,-9999.0,ENE,6.9,-,N/A,,Clear,70,2013-06-08 15:00:00
4:00 AM,48.2,46.4,93,29.92,-9999.0,SE,1.2,-,N/A,,Clear,140,2013-06-08 16:00:00
5:00 AM,44.6,42.8,93,29.95,-9999.0,SSW,2.3,-,N/A,,Clear,200,2013-06-08 17:00:00
6:00 AM,41.0,39.2,93,29.98,6.2,West,2.3,-,N/A,,Partly Cloudy,270,2013-06-08 18:00:00
7:00 AM,46.4,46.4,100,29.98,6.2,SE,1.2,-,N/A,,Partly Cloudy,130,2013-06-08 19:00:00
8:00 AM,44.6,44.6,100,30.01,6.2,WSW,3.5,-,N/A,Fog,Patches of Fog,250,2013-06-08 20:00:00
9:00 AM,42.8,42.8,100,30.06,6.2,SSE,2.3,-,N/A,,Partly Cloudy,160,2013-06-08 21:00:00
10:00 AM,48.2,46.4,93,30.09,-9999.0,SSW,2.3,-,N/A,,Clear,210,2013-06-08 22:00:00
11:00 AM,51.8,44.6,76,30.09,-9999.0,SW,8.1,-,N/A,,Clear,220,2013-06-08 23:00:00
12:00 PM,53.6,48.2,82,30.09,6.2,SW,11.5,-,N/A,,Scattered Clouds,230,2013-06-09 00:00:00
1:00 PM,53.6,50.0,88,30.09,6.2,SW,12.7,-,N/A,,Mostly Cloudy,220,2013-06-09 01:00:00
2:00 PM,53.6,50.0,88,30.09,6.2,SW,11.5,-,N/A,,Mostly Cloudy,220,2013-06-09 02:00:00
3:00 PM,53.6,48.2,82,30.09,6.2,SW,11.5,-,N/A,,Mostly Cloudy,230,2013-06-09 03:00:00
4:00 PM,53.6,48.2,82,30.12,6.2,SW,10.4,-,N/A,,Mostly Cloudy,230,2013-06-09 04:00:00
5:00 PM,51.8,48.2,88,30.12,6.2,SW,6.9,-,N/A,,Mostly Cloudy,220,2013-06-09 05:00:00
6:00 PM,51.8,48.2,88,30.15,6.2,SSW,6.9,-,N/A,,Overcast,210,2013-06-09 06:00:00
7:00 PM,50.0,48.2,94,30.15,6.2,SW,8.1,-,N/A,,Mostly Cloudy,230,2013-06-09 07:00:00
8:00 PM,50.0,48.2,94,30.18,6.2,SW,5.8,-,N/A,,Overcast,230,2013-06-09 08:00:00
9:00 PM,50.0,48.2,94,30.18,6.2,SW,5.8,-,N/A,,Overcast,230,2013-06-09 09:00:00
10:00 PM,50.0,48.2,94,30.18,6.2,WSW,4.6,-,N/A,,Overcast,250,2013-06-09 10:00:00
11:00 PM,48.2,46.4,93,30.21,6.2,WSW,6.9,-,N/A,,Mostly Cloudy,240,2013-06-09 11:00:00